TimeCDT,TemperatureF,Dew PointF,Humidity,Sea Level PressureIn,VisibilityMPH,Wind Direction,Wind SpeedMPH,Gust SpeedMPH,PrecipitationIn,Events,Conditions,WindDirDegrees,DateUTC
12:14 AM,75.2,66.2,73,30.06,10.0,SSE,9.2,-,N/A,,Clear,160,2013-08-24 05:14:00
12:33 AM,75.2,66.2,73,30.06,10.0,SSE,11.5,16.1,N/A,,Clear,150,2013-08-24 05:33:00
12:54 AM,75.2,66.2,73,30.06,10.0,SSE,11.5,-,N/A,,Clear,150,2013-08-24 05:54:00
1:14 AM,75.2,66.2,73,30.07,10.0,SSE,11.5,-,N/A,,Clear,160,2013-08-24 06:14:00
1:33 AM,75.2,66.2,73,30.06,10.0,SSE,12.7,-,N/A,,Clear,160,2013-08-24 06:33:00
1:54 AM,75.2,66.2,73,30.06,10.0,SSE,11.5,-,N/A,,Clear,160,2013-08-24 06:54:00
2:14 AM,73.4,66.2,78,30.06,10.0,SSE,11.5,-,N/A,,Clear,160,2013-08-24 07:14:00
2:34 AM,73.4,66.2,78,30.07,10.0,SSE,11.5,-,N/A,,Clear,160,2013-08-24 07:34:00
2:54 AM,73.4,64.4,73,30.07,10.0,SSE,13.8,-,N/A,,Clear,160,2013-08-24 07:54:00
3:14 AM,73.4,66.2,78,30.07,10.0,SSE,10.4,-,N/A,,Clear,150,2013-08-24 08:14:00
3:34 AM,73.4,66.2,78,30.07,10.0,SSE,10.4,-,N/A,,Scattered Clouds,150,2013-08-24 08:34:00
3:54 AM,73.4,64.4,73,30.07,10.0,SSE,10.4,-,N/A,,Clear,150,2013-08-24 08:54:00
4:14 AM,73.4,64.4,73,30.07,10.0,SSE,9.2,-,N/A,,Clear,150,2013-08-24 09:14:00
4:34 AM,73.4,64.4,73,30.07,10.0,SSE,10.4,-,N/A,,Clear,150,2013-08-24 09:34:00
4:54 AM,73.4,64.4,73,30.07,10.0,SSE,11.5,-,N/A,,Clear,150,2013-08-24 09:54:00
5:13 AM,73.4,64.4,73,30.07,10.0,SSE,11.5,-,N/A,,Clear,150,2013-08-24 10:13:00
5:34 AM,73.4,64.4,73,30.07,10.0,SSE,10.4,-,N/A,,Clear,160,2013-08-24 10:34:00
5:53 AM,73.4,64.4,73,30.07,10.0,SSE,13.8,-,N/A,,Clear,160,2013-08-24 10:53:00
6:14 AM,73.4,64.4,73,30.07,10.0,SSE,10.4,17.3,N/A,,Clear,150,2013-08-24 11:14:00
6:34 AM,73.4,64.4,73,30.08,10.0,SSE,15.0,20.7,N/A,,Clear,150,2013-08-24 11:34:00
6:54 AM,73.4,66.2,78,30.08,10.0,SSE,10.4,18.4,N/A,,Scattered Clouds,160,2013-08-24 11:54:00
7:45 AM,73.4,66.2,78,30.08,10.0,SSE,12.7,19.6,N/A,,Mostly Cloudy,150,2013-08-24 12:45:00
8:45 AM,75.2,66.2,73,30.07,10.0,SSE,12.7,20.7,N/A,,Scattered Clouds,150,2013-08-24 13:45:00
9:45 AM,78.8,68.0,69,30.06,10.0,SE,16.1,19.6,N/A,,Scattered Clouds,140,2013-08-24 14:45:00
10:45 AM,82.4,69.8,66,30.04,10.0,SSE,16.1,20.7,N/A,,Scattered Clouds,150,2013-08-24 15:45:00
12:45 PM,86.0,71.6,62,30.00,10.0,SSE,16.1,21.9,N/A,,Scattered Clouds,150,2013-08-24 17:45:00
1:55 PM,87.8,71.6,58,30.00,10.0,South,17.3,26.5,N/A,,Mostly Cloudy,180,2013-08-24 18:55:00
2:45 PM,89.6,69.8,52,29.99,10.0,South,17.3,29.9,N/A,,Scattered Clouds,170,2013-08-24 19:45:00
3:45 PM,89.6,69.8,52,29.97,10.0,South,17.3,29.9,N/A,,Scattered Clouds,170,2013-08-24 20:45:00
4:45 PM,89.6,71.6,55,29.97,10.0,South,18.4,29.9,N/A,,Scattered Clouds,170,2013-08-24 21:45:00
5:45 PM,87.8,69.8,55,29.96,10.0,South,24.2,36.8,N/A,,Scattered Clouds,170,2013-08-24 22:45:00
6:45 PM,86.0,69.8,58,29.94,10.0,South,20.7,32.2,N/A,,Scattered Clouds,170,2013-08-24 23:45:00
7:45 PM,84.2,71.6,66,29.94,10.0,South,18.4,29.9,N/A,,Scattered Clouds,170,2013-08-25 00:45:00
8:45 PM,84.2,71.6,66,29.94,10.0,South,18.4,25.3,N/A,,Scattered Clouds,170,2013-08-25 01:45:00
9:14 PM,82.4,71.6,70,29.95,10.0,SSE,18.4,25.3,N/A,,Clear,160,2013-08-25 02:14:00
9:34 PM,82.4,71.6,70,29.95,10.0,SSE,13.8,24.2,N/A,,Clear,160,2013-08-25 02:34:00
9:45 PM,82.4,71.6,70,29.95,10.0,South,17.3,24.2,N/A,,Partly Cloudy,170,2013-08-25 02:45:00
9:54 PM,82.4,71.6,70,29.95,10.0,SSE,15.0,23.0,N/A,,Clear,160,2013-08-25 02:54:00
10:14 PM,82.4,71.6,70,29.95,10.0,South,17.3,21.9,N/A,,Clear,170,2013-08-25 03:14:00
10:34 PM,82.4,71.6,70,29.95,10.0,South,17.3,20.7,N/A,,Clear,170,2013-08-25 03:34:00
10:54 PM,82.4,71.6,70,29.95,10.0,South,18.4,26.5,N/A,,Clear,180,2013-08-25 03:54:00
11:14 PM,82.4,71.6,70,29.95,10.0,South,16.1,25.3,N/A,,Clear,180,2013-08-25 04:14:00
11:33 PM,82.4,71.6,70,29.96,10.0,South,13.8,25.3,N/A,,Clear,190,2013-08-25 04:33:00
11:54 PM,82.4,71.6,70,29.96,10.0,South,12.7,19.6,N/A,,Clear,190,2013-08-25 04:54:00